Weather History for Kendall, FL

Change the Weather History Date:

Thursday, November 24, 2011

  Actual Average Record
Temperature  
Mean Temperature 74 °F -  
Max Temperature 79 °F 82 °F 86 °F (1989)
Min Temperature 68 °F 66 °F 46 °F (2005)
Cooling Degree Days 8    
Growing Degree Days 24 (Base 50)    
Moisture  
Dew Point 64 °F    
Average Humidity 74    
Maximum Humidity 94    
Minimum Humidity 58    
Precipitation  
Precipitation 0.00 in - - ()
Sea Level Pressure  
Sea Level Pressure 30.10 in    
Wind  
Wind Speed 9 mph (NNE)    
Max Wind Speed 18 mph    
Max Gust Speed 21 mph    
Visibility 9 miles    
Events      
Averages and records for this station are not official NWS values.
T = Trace of Precipitation, MM = Missing Value Source: NWS Daily Summary

Daily Weather History Graph

Daily Weather History Graph

Search for Another Location

Airport:

Trip Planner

Search our weather history database for the weather conditions in past years. The results will help you decide how hot, cold, wet, or windy it might be!

Date:

Astronomy

Nov. 24, 2011 Rise Set
Actual Time 6:45 AM EST 5:30 PM EST
Civil Twilight 6:21 AM EST 5:55 PM EST
Nautical Twilight 5:53 AM EST 6:23 PM EST
Astronomical Twilight 5:25 AM EST 6:51 PM EST
Moon 6:00 AM EST 5:03 PM EST
Length of Visible Light 11h 34m
Length of Day
10h 45m
Waning Crescent, 0% of the Moon is Illuminated
Nov 24
Waning Crescent
Nov 25
New
Dec 2
First Quarter
Dec 10
Full
Dec 17
Last Quarter

Hourly Weather History & Observations

Time (EST) Temp. Dew Point Humidity Pressure Visibility Wind Dir Wind Speed Gust Speed Precip Events Conditions
12:53 AM 70.0 °F 68.0 °F 93% 30.06 in 4.0 mi West 4.6 mph - N/A   Clear
1:17 AM 69.8 °F 68.0 °F 94% 30.06 in 4.0 mi WNW 4.6 mph - N/A   Mostly Cloudy
1:53 AM 69.1 °F 66.9 °F 93% 30.05 in 6.0 mi WNW 5.8 mph - N/A   Scattered Clouds
2:53 AM - - N/A% 30.04 in 10.0 mi NW 8.1 mph - N/A   Clear
3:53 AM 69.1 °F 64.9 °F 87% 30.04 in 10.0 mi NNW 9.2 mph - N/A   Clear
4:53 AM 68.0 °F 66.0 °F 93% 30.05 in 10.0 mi North 6.9 mph - N/A   Clear
5:53 AM 69.8 °F 66.2 °F 88% 30.06 in 10.0 mi North 6.9 mph - N/A   Clear
6:53 AM 69.1 °F 66.0 °F 90% 30.09 in 10.0 mi North 11.5 mph - N/A   Clear
7:53 AM 70.0 °F 66.0 °F 87% 30.10 in 10.0 mi North 15.0 mph 20.7 mph N/A   Clear
8:53 AM 72.0 °F 66.9 °F 84% 30.12 in 10.0 mi NNE 10.4 mph - N/A   Scattered Clouds
9:53 AM 75.9 °F 68.0 °F 76% 30.13 in 10.0 mi North 11.5 mph - N/A   Clear
10:53 AM 78.1 °F 66.9 °F 68% 30.12 in 10.0 mi NE 6.9 mph - N/A   Clear
11:34 AM 78.8 °F 66.2 °F 65% 30.11 in 10.0 mi NNE 9.2 mph - N/A   Mostly Cloudy
11:53 AM 78.1 °F 66.9 °F 68% 30.10 in 10.0 mi NE 9.2 mph - N/A   Mostly Cloudy
12:53 PM 79.0 °F 66.9 °F 66% 30.08 in 10.0 mi East 12.7 mph - N/A   Mostly Cloudy
1:53 PM 77.0 °F 64.4 °F 65% 30.08 in 10.0 mi ENE 18.4 mph - N/A   Mostly Cloudy
2:53 PM 77.0 °F 64.0 °F 64% 30.08 in 10.0 mi NE 13.8 mph - N/A   Overcast
3:53 PM 77.0 °F 62.1 °F 60% 30.09 in 10.0 mi ENE 15.0 mph 20.7 mph N/A   Overcast
4:53 PM 75.9 °F 60.1 °F 58% 30.09 in 10.0 mi ENE 15.0 mph - N/A   Scattered Clouds
5:53 PM 73.9 °F 61.0 °F 64% 30.11 in 10.0 mi NE 11.5 mph - N/A   Clear
6:53 PM 73.0 °F 61.0 °F 66% 30.13 in 10.0 mi ENE 12.7 mph - N/A   Clear
7:53 PM 73.0 °F 60.1 °F 64% 30.14 in 10.0 mi ENE 11.5 mph - N/A   Clear
8:53 PM 71.1 °F 59.0 °F 66% 30.15 in 10.0 mi NE 10.4 mph - N/A   Clear
9:53 PM 71.1 °F 57.9 °F 63% 30.16 in 10.0 mi NE 10.4 mph - N/A   Clear
10:53 PM 71.1 °F 57.9 °F 63% 30.17 in 10.0 mi NE 8.1 mph - N/A   Mostly Cloudy
11:53 PM 69.1 °F 57.0 °F 65% 30.17 in 10.0 mi ENE 6.9 mph - N/A   Clear